#�ϑ�����,���ϕ���,���ϕ���,�ő啗��,�ő啗����������,�ő�u�ԕ���,�ő�u�ԕ�����������
#(�N����),(m/s)   ,(16����),(m/s)   ,(16����)        ,(m/s)       ,(16����)            
2016/11/30 0:01,1.9,16,1.9,16,3.5,16
2016/11/30 0:02,2.2,16,2.2,16,4.5,16
2016/11/30 0:03,2.2,16,2.3,16,4.2,16
2016/11/30 0:04,2.3,16,2.3,16,3.1,16
2016/11/30 0:05,2.4,16,2.4,16,4.7,15
2016/11/30 0:06,2.4,16,2.4,16,3.5,2
2016/11/30 0:07,2.4,16,2.4,16,2.6,16
2016/11/30 0:08,2.4,16,2.4,16,2.5,1
2016/11/30 0:09,2.3,16,2.4,16,3.1,1
2016/11/30 0:10,2.3,16,2.3,16,2.7,1
2016/11/30 0:11,2.1,16,2.3,16,1.5,2
2016/11/30 0:12,1.8,16,2,16,1.8,16
2016/11/30 0:13,1.8,16,1.8,16,3.2,1
2016/11/30 0:14,1.9,1,1.9,16,3.9,2
2016/11/30 0:15,1.8,1,1.9,16,3.5,2
2016/11/30 0:16,1.7,1,1.7,16,4.2,16
2016/11/30 0:17,1.8,1,1.8,16,6.7,16
2016/11/30 0:18,2.2,1,2.2,16,6.7,16
2016/11/30 0:19,2.2,1,2.2,16,5.4,16
2016/11/30 0:20,2.3,1,2.3,16,3.5,15
2016/11/30 0:21,2.5,16,2.5,16,4.4,15
2016/11/30 0:22,2.7,16,2.7,16,4.7,16
2016/11/30 0:23,2.9,16,2.9,16,6,16
2016/11/30 0:24,2.8,16,2.9,16,4.1,15
2016/11/30 0:25,3.1,16,3.1,16,6.3,16
2016/11/30 0:26,3.3,16,3.3,16,6,16
2016/11/30 0:27,3.5,16,3.5,16,6.2,16
2016/11/30 0:28,3.3,16,3.5,16,5.5,16
2016/11/30 0:29,3.4,16,3.4,16,4.7,16
2016/11/30 0:30,3.3,16,3.4,16,3.1,16
2016/11/30 0:31,3.4,16,3.4,16,4.9,2
2016/11/30 0:32,3.2,16,3.4,16,5.1,2
2016/11/30 0:33,3.1,16,3.2,16,4.3,14
2016/11/30 0:34,3.2,16,3.2,16,5.8,15
2016/11/30 0:35,3.2,16,3.3,16,6.5,16
2016/11/30 0:36,2.9,16,3.1,16,3.2,1
2016/11/30 0:37,2.7,16,2.9,16,4.1,3
2016/11/30 0:38,2.6,16,2.7,16,4.3,2
2016/11/30 0:39,2.7,16,2.7,16,5.5,16
2016/11/30 0:40,2.7,16,2.7,16,4.2,15
2016/11/30 0:41,2.8,16,2.8,16,6.4,16
2016/11/30 0:42,3,16,3,16,6.2,16
2016/11/30 0:43,2.9,1,3,16,3.8,1
2016/11/30 0:44,2.8,1,2.9,16,3.3,1
2016/11/30 0:45,2.7,1,2.8,16,4.3,2
2016/11/30 0:46,2.7,1,2.7,16,2.5,2
2016/11/30 0:47,2.5,1,2.7,16,1.5,1
2016/11/30 0:48,2.4,1,2.5,16,1.1,1
2016/11/30 0:49,2.1,1,2.3,16,1.5,16
2016/11/30 0:50,2,1,2.1,16,2,3
2016/11/30 0:51,1.7,1,1.9,16,2.6,4
2016/11/30 0:52,1.5,1,1.7,16,2.5,2
2016/11/30 0:53,1.4,1,1.5,1,2.1,15
2016/11/30 0:54,1.3,1,1.4,1,2.1,15
2016/11/30 0:55,1.2,1,1.3,1,2.7,15
2016/11/30 0:56,1.2,16,1.2,1,2.7,15
2016/11/30 0:57,1.3,16,1.3,1,2.7,16
2016/11/30 0:58,1.6,16,1.6,1,5.4,16
2016/11/30 0:59,1.9,16,1.9,1,5,16
2016/11/30 1:00,2,16,2,16,4.8,1
2016/11/30 1:01,2.1,16,2.1,16,5.6,16
2016/11/30 1:02,2.1,16,2.1,16,1.8,3
2016/11/30 1:03,2.1,16,2.1,16,2.9,2
2016/11/30 1:04,2.1,16,2.2,16,3.6,1
2016/11/30 1:05,2.1,16,2.1,16,3,16
2016/11/30 1:06,2.2,16,2.2,16,5.1,15
2016/11/30 1:07,2.3,16,2.3,16,3.7,16
2016/11/30 1:08,2.2,16,2.3,16,3.7,1
2016/11/30 1:09,2,1,2.2,16,2.7,1
2016/11/30 1:10,2.2,16,2.2,16,4.8,16
2016/11/30 1:11,2.3,16,2.3,16,6,15
2016/11/30 1:12,2.5,16,2.5,16,5,16
2016/11/30 1:13,2.6,16,2.6,16,3.8,15
2016/11/30 1:14,2.6,16,2.6,16,3,14
2016/11/30 1:15,2.7,16,2.7,16,3.7,2
2016/11/30 1:16,2.6,16,2.7,16,2.5,15
2016/11/30 1:17,2.6,16,2.6,16,3.1,16
2016/11/30 1:18,2.5,16,2.6,16,2.9,15
2016/11/30 1:19,2.4,16,2.5,16,2.1,16
2016/11/30 1:20,2.2,16,2.4,16,3.3,16
2016/11/30 1:21,2.2,16,2.2,16,5.1,16
2016/11/30 1:22,2.2,16,2.2,16,4.1,16
2016/11/30 1:23,2.1,16,2.2,16,4.3,16
2016/11/30 1:24,2.2,16,2.2,16,4.9,15
2016/11/30 1:25,2.1,16,2.2,16,3.9,16
2016/11/30 1:26,2.2,16,2.2,16,3.3,16
2016/11/30 1:27,2.2,16,2.2,16,3.6,16
2016/11/30 1:28,2.2,16,2.2,16,3.9,15
2016/11/30 1:29,2.4,16,2.4,16,4.1,15
2016/11/30 1:30,2.5,16,2.5,16,3.1,16
2016/11/30 1:31,2.5,16,2.5,16,4.7,15
2016/11/30 1:32,2.4,16,2.5,16,3.5,16
2016/11/30 1:33,2.5,16,2.5,16,3.7,15
2016/11/30 1:34,2.5,16,2.5,16,4.2,16
2016/11/30 1:35,2.6,16,2.6,16,3.7,16
2016/11/30 1:36,2.7,16,2.7,16,4.1,15
2016/11/30 1:37,2.7,16,2.7,16,3.2,16
2016/11/30 1:38,2.7,16,2.7,16,3.2,15
2016/11/30 1:39,2.6,15,2.7,16,3.5,15
2016/11/30 1:40,2.7,15,2.7,16,3.6,16
2016/11/30 1:41,2.6,15,2.7,16,3.2,16
2016/11/30 1:42,2.6,16,2.6,16,2.5,1
2016/11/30 1:43,2.4,16,2.5,16,2.5,1
2016/11/30 1:44,2.3,16,2.4,16,2.7,1
2016/11/30 1:45,2.3,16,2.3,16,3.3,16
2016/11/30 1:46,2.2,16,2.3,16,2.4,16
2016/11/30 1:47,2.1,16,2.2,16,2,1
2016/11/30 1:48,1.9,16,2.1,16,1,12
2016/11/30 1:49,1.8,15,1.9,15,2.2,14
2016/11/30 1:50,1.7,15,1.8,15,2,14
2016/11/30 1:51,1.6,15,1.7,15,1.6,13
2016/11/30 1:52,1.6,15,1.6,16,3.1,14
2016/11/30 1:53,1.6,14,1.6,16,3.2,15
2016/11/30 1:54,1.6,14,1.6,16,2.7,14
2016/11/30 1:55,1.6,14,1.6,16,3.2,16
2016/11/30 1:56,1.7,14,1.7,16,3.9,15
2016/11/30 1:57,1.8,14,1.8,16,3.3,16
2016/11/30 1:58,1.9,14,1.9,15,1.9,15
2016/11/30 1:59,1.8,14,1.9,14,0.9,15
2016/11/30 2:00,1.6,14,1.8,14,0.3,10
2016/11/30 2:01,1.5,14,1.6,14,0.1,9
2016/11/30 2:02,1.3,14,1.5,14,1,10
2016/11/30 2:03,1.2,13,1.3,14,1.8,10
2016/11/30 2:04,1.3,12,1.3,14,3,9
2016/11/30 2:05,1.3,11,1.3,14,3.5,9
2016/11/30 2:06,1.1,11,1.3,14,2.7,9
2016/11/30 2:07,1.1,10,1.1,14,2.9,10
2016/11/30 2:08,1.1,10,1.1,14,2.6,9
2016/11/30 2:09,1.2,10,1.2,14,2.9,9
2016/11/30 2:10,1.3,10,1.3,14,2.1,9
2016/11/30 2:11,1.4,10,1.4,14,0.9,13
2016/11/30 2:12,1.4,10,1.4,10,1.3,10
2016/11/30 2:13,1.4,10,1.4,10,1.4,10
2016/11/30 2:14,1.3,10,1.4,10,2.5,9
2016/11/30 2:15,1.1,10,1.3,10,2.4,10
2016/11/30 2:16,1.1,11,1.1,10,2.4,8
2016/11/30 2:17,1.1,10,1.1,10,2.2,9
2016/11/30 2:18,1.1,10,1.1,10,2.7,9
2016/11/30 2:19,1.3,10,1.3,10,3.5,9
2016/11/30 2:20,1.4,10,1.4,10,2.6,9
2016/11/30 2:21,1.5,10,1.5,10,2.9,9
2016/11/30 2:22,1.6,10,1.6,10,3.7,10
2016/11/30 2:23,1.9,10,1.9,10,3.7,10
2016/11/30 2:24,2,10,2,10,4.2,10
2016/11/30 2:25,2,9,2,10,3,9
2016/11/30 2:26,1.9,9,2,10,1.3,8
2016/11/30 2:27,1.8,9,1.9,10,0.3,6
2016/11/30 2:28,1.6,10,1.8,10,0.6,1
2016/11/30 2:29,1.4,10,1.6,10,0.4,12
2016/11/30 2:30,1.2,10,1.3,10,1.1,1
2016/11/30 2:31,1,11,1.2,10,0.5,15
2016/11/30 2:32,0.8,13,1,10,0.4,1
2016/11/30 2:33,0.5,14,0.8,10,0.1,14
2016/11/30 2:34,0.4,14,0.5,10,2.1,11
2016/11/30 2:35,0.4,14,0.4,9,2.6,11
2016/11/30 2:36,0.6,14,0.6,9,2.7,11
2016/11/30 2:37,0.9,13,0.9,9,3,11
2016/11/30 2:38,1.1,13,1.1,10,3,12
2016/11/30 2:39,1.3,13,1.3,10,2.7,12
2016/11/30 2:40,1.5,12,1.5,12,2.5,12
2016/11/30 2:41,1.7,12,1.7,12,2.9,12
2016/11/30 2:42,1.9,12,1.9,12,3.5,13
2016/11/30 2:43,2.1,11,2.1,12,3.2,12
2016/11/30 2:44,2.3,11,2.3,11,3,12
2016/11/30 2:45,2.4,11,2.4,11,3.7,10
2016/11/30 2:46,2.3,11,2.4,11,2.7,12
2016/11/30 2:47,2.2,12,2.3,11,1.9,16
2016/11/30 2:48,2,12,2.1,11,2.6,1
2016/11/30 2:49,2,12,2,11,3,2
2016/11/30 2:50,2,13,2,11,2.9,15
2016/11/30 2:51,2,13,2,11,3.3,16
2016/11/30 2:52,1.9,14,2,11,2.9,2
2016/11/30 2:53,1.8,15,1.9,11,2.5,2
2016/11/30 2:54,1.7,16,1.8,11,2,3
2016/11/30 2:55,1.5,1,1.7,11,2,4
2016/11/30 2:56,1.4,1,1.5,11,1.3,1
2016/11/30 2:57,1.4,2,1.4,12,1.6,3
2016/11/30 2:58,1.5,2,1.5,12,3,4
2016/11/30 2:59,1.4,2,1.5,12,2.6,5
2016/11/30 3:00,1.5,3,1.5,13,2.5,4
2016/11/30 3:01,1.4,3,1.5,13,2.2,6
2016/11/30 3:02,1.4,4,1.4,14,2.7,8
2016/11/30 3:03,1.2,4,1.4,15,1,9
2016/11/30 3:04,1.2,4,1.2,16,2.6,16
2016/11/30 3:05,1.4,4,1.4,1,3.3,16
2016/11/30 3:06,1.5,4,1.5,2,2.7,15
2016/11/30 3:07,1.4,3,1.5,2,1.1,5
2016/11/30 3:08,1.3,3,1.4,2,1.8,2
2016/11/30 3:09,1.2,2,1.3,2,1.5,2
2016/11/30 3:10,1.1,1,1.2,3,1.6,16
2016/11/30 3:11,1,1,1.1,4,1.4,15
2016/11/30 3:12,1,1,1,4,1.8,16
2016/11/30 3:13,1.2,1,1.2,4,3.3,2
2016/11/30 3:14,1.4,1,1.4,4,3.8,2
2016/11/30 3:15,1.4,1,1.4,4,3.8,2
2016/11/30 3:16,1.4,1,1.4,3,3.5,2
2016/11/30 3:17,1.6,1,1.6,1,4.1,16
2016/11/30 3:18,1.7,1,1.7,1,3.3,1
2016/11/30 3:19,1.7,1,1.7,1,2.1,2
2016/11/30 3:20,1.8,1,1.8,1,2.2,2
2016/11/30 3:21,2,1,2,1,3.3,3
2016/11/30 3:22,2,1,2,1,2.9,1
2016/11/30 3:23,1.9,1,2,1,2.7,1
2016/11/30 3:24,1.8,1,1.9,1,2.4,2
2016/11/30 3:25,1.7,1,1.8,1,2.1,16
2016/11/30 3:26,1.5,1,1.7,1,1.5,1
2016/11/30 3:27,1.5,2,1.5,1,3.9,3
2016/11/30 3:28,1.4,2,1.5,1,3.5,3
2016/11/30 3:29,1.4,2,1.5,1,2.2,1
2016/11/30 3:30,1.5,2,1.5,1,3,2
2016/11/30 3:31,1.5,2,1.5,1,3.2,1
2016/11/30 3:32,1.5,2,1.5,1,3.1,1
2016/11/30 3:33,1.5,2,1.5,1,3.7,16
2016/11/30 3:34,1.5,1,1.6,1,2,12
2016/11/30 3:35,1.6,1,1.6,1,2.7,1
2016/11/30 3:36,1.5,1,1.6,1,1.5,1
2016/11/30 3:37,1.6,1,1.6,1,3.1,16
2016/11/30 3:38,1.7,1,1.7,1,3.3,16
2016/11/30 3:39,1.8,1,1.8,1,3.2,15
2016/11/30 3:40,1.8,16,1.8,1,2.5,16
2016/11/30 3:41,1.8,16,1.8,1,2.6,16
2016/11/30 3:42,1.7,16,1.8,1,2.5,16
2016/11/30 3:43,1.7,16,1.7,1,2.1,16
2016/11/30 3:44,1.8,1,1.8,1,3.9,2
2016/11/30 3:45,2,1,2,1,4.3,3
2016/11/30 3:46,2,1,2,1,2.6,3
2016/11/30 3:47,2,1,2.1,1,2.2,4
2016/11/30 3:48,1.9,2,2,1,2.6,3
2016/11/30 3:49,1.8,2,1.9,1,2.6,2
2016/11/30 3:50,1.8,2,1.8,1,2.5,5
2016/11/30 3:51,1.7,3,1.8,1,2.1,6
2016/11/30 3:52,1.7,3,1.7,1,1.3,6
2016/11/30 3:53,1.6,3,1.7,1,1.1,2
2016/11/30 3:54,1.4,3,1.6,1,0.9,16
2016/11/30 3:55,1.2,3,1.4,1,0.9,1
2016/11/30 3:56,1.2,3,1.2,1,1.9,16
2016/11/30 3:57,1.2,2,1.2,1,2.2,16
2016/11/30 3:58,1.2,2,1.2,2,3.2,16
2016/11/30 3:59,1.3,1,1.3,2,3,14
2016/11/30 4:00,1.3,16,1.3,3,2.7,15
2016/11/30 4:01,1.4,16,1.4,3,2.7,14
2016/11/30 4:02,1.5,15,1.5,3,2.5,13
2016/11/30 4:03,1.6,15,1.6,3,1.9,13
2016/11/30 4:04,1.7,14,1.7,15,2.2,14
2016/11/30 4:05,1.7,14,1.7,15,1.4,13
2016/11/30 4:06,1.7,14,1.7,15,1.4,1
2016/11/30 4:07,1.6,14,1.7,15,1.4,2
2016/11/30 4:08,1.5,14,1.6,15,2.2,16
2016/11/30 4:09,1.6,14,1.6,15,4.8,15
2016/11/30 4:10,1.6,14,1.6,15,3.5,15
2016/11/30 4:11,1.6,14,1.6,15,3.7,15
2016/11/30 4:12,1.5,15,1.6,15,2.7,15
2016/11/30 4:13,1.4,15,1.5,15,0.9,3
2016/11/30 4:14,1.3,16,1.4,14,1,3
2016/11/30 4:15,1.3,1,1.3,14,1.1,5
2016/11/30 4:16,1.2,1,1.3,14,1.1,5
2016/11/30 4:17,1.2,1,1.2,14,1,1
2016/11/30 4:18,1.2,1,1.2,14,0.9,14
2016/11/30 4:19,1,1,1.2,14,1.3,15
2016/11/30 4:20,0.8,2,0.9,14,2.5,16
2016/11/30 4:21,0.8,2,0.8,15,3,15
2016/11/30 4:22,1,1,1,15,4.1,16
2016/11/30 4:23,1.1,1,1.1,15,3,15
2016/11/30 4:24,1.2,16,1.2,16,2.5,16
2016/11/30 4:25,1.3,16,1.3,1,2.2,16
2016/11/30 4:26,1.4,16,1.4,16,2,15
2016/11/30 4:27,1.5,15,1.5,15,3,16
2016/11/30 4:28,1.6,15,1.6,15,2.6,2
2016/11/30 4:29,1.6,16,1.6,15,1.8,2
2016/11/30 4:30,1.7,16,1.7,16,2.5,16
2016/11/30 4:31,1.7,16,1.7,16,2.9,16
2016/11/30 4:32,1.6,16,1.7,16,3.6,16
2016/11/30 4:33,1.6,16,1.6,16,2.5,1
2016/11/30 4:34,1.7,16,1.7,16,3.5,15
2016/11/30 4:35,1.8,16,1.8,16,3.3,15
2016/11/30 4:36,1.9,16,1.9,16,3.3,16
2016/11/30 4:37,1.9,16,1.9,16,3.1,15
2016/11/30 4:38,2,16,2,16,3.2,16
2016/11/30 4:39,2.1,16,2.1,16,3,15
2016/11/30 4:40,2.1,16,2.1,16,2.2,14
2016/11/30 4:41,2,16,2.1,16,1.4,5
2016/11/30 4:42,1.9,16,2,16,2.2,15
2016/11/30 4:43,2,15,2,16,4.2,16
2016/11/30 4:44,2,15,2,16,4.2,16
2016/11/30 4:45,2.1,15,2.1,16,4.7,15
2016/11/30 4:46,2.1,15,2.1,16,4.9,16
2016/11/30 4:47,2.1,15,2.1,16,3.2,16
2016/11/30 4:48,1.9,16,2.1,16,1.3,4
2016/11/30 4:49,1.8,16,1.9,16,1.1,4
2016/11/30 4:50,1.6,1,1.8,16,0.9,1
2016/11/30 4:51,1.7,16,1.7,15,2,13
2016/11/30 4:52,1.8,16,1.8,15,2.7,13
2016/11/30 4:53,1.7,16,1.8,15,2.6,12
2016/11/30 4:54,1.6,15,1.7,15,2.4,13
2016/11/30 4:55,1.5,14,1.6,15,2.4,12
2016/11/30 4:56,1.4,14,1.5,15,2.4,15
2016/11/30 4:57,1.3,13,1.4,15,2.2,14
2016/11/30 4:58,1.4,14,1.4,16,1.8,16
2016/11/30 4:59,1.4,14,1.4,16,1.6,16
2016/11/30 5:00,1.5,14,1.5,16,2.2,16
2016/11/30 5:01,1.5,14,1.5,16,2.1,16
2016/11/30 5:02,1.5,14,1.5,16,2.7,15
2016/11/30 5:03,1.6,14,1.6,15,3.2,15
2016/11/30 5:04,1.6,15,1.6,15,3,15
2016/11/30 5:05,1.6,15,1.6,14,2.7,16
2016/11/30 5:06,1.7,15,1.7,15,3.1,15
2016/11/30 5:07,1.8,15,1.8,15,3,14
2016/11/30 5:08,1.8,15,1.8,15,2.5,16
2016/11/30 5:09,1.8,15,1.8,15,1.6,16
2016/11/30 5:10,1.7,15,1.8,15,1,14
2016/11/30 5:11,1.6,15,1.7,15,1,13
2016/11/30 5:12,1.5,14,1.6,15,1,13
2016/11/30 5:13,1.3,14,1.5,15,0.8,12
2016/11/30 5:14,1.2,14,1.3,15,1.1,13
2016/11/30 5:15,1.1,14,1.2,15,1.1,16
2016/11/30 5:16,1,14,1.1,15,1.4,15
2016/11/30 5:17,0.9,14,1,15,1.5,16
2016/11/30 5:18,0.8,14,0.9,15,1.1,16
2016/11/30 5:19,0.9,14,0.9,15,1.9,14
2016/11/30 5:20,0.9,14,0.9,15,1.8,12
2016/11/30 5:21,1,14,1,15,1.6,12
2016/11/30 5:22,0.9,14,1,14,1,13
2016/11/30 5:23,0.9,14,0.9,14,1,3
2016/11/30 5:24,1,14,1,14,2,6
2016/11/30 5:25,1.1,14,1.1,14,2.1,6
2016/11/30 5:26,1.2,13,1.2,14,2.4,8
2016/11/30 5:27,1.2,10,1.2,14,2,8
2016/11/30 5:28,1.2,9,1.2,14,1.5,9
2016/11/30 5:29,1.2,9,1.2,14,1.4,10
2016/11/30 5:30,1.1,8,1.2,14,2.5,16
2016/11/30 5:31,1.2,8,1.2,14,3,16
2016/11/30 5:32,1.3,7,1.3,7,2,16
2016/11/30 5:33,1.4,7,1.4,7,1.5,1
2016/11/30 5:34,1.3,2,1.3,7,2,2
2016/11/30 5:35,1.3,1,1.3,7,1.9,3
2016/11/30 5:36,1.2,1,1.3,7,2,2
2016/11/30 5:37,1.3,1,1.3,7,2,1
2016/11/30 5:38,1.3,1,1.3,7,2.1,1
2016/11/30 5:39,1.4,1,1.4,7,2,1
2016/11/30 5:40,1.4,1,1.4,7,1.6,16
2016/11/30 5:41,1.3,1,1.4,7,1.6,16
2016/11/30 5:42,1.2,1,1.3,7,0.9,1
2016/11/30 5:43,1.2,1,1.2,1,1.3,14
2016/11/30 5:44,1.1,16,1.2,1,1.1,14
2016/11/30 5:45,1.1,16,1.1,1,1.3,14
2016/11/30 5:46,1,16,1.1,1,1,15
2016/11/30 5:47,0.9,15,1,1,1.1,15
2016/11/30 5:48,0.8,15,0.9,1,0.9,6
2016/11/30 5:49,0.8,14,0.8,1,1.8,7
2016/11/30 5:50,0.7,14,0.8,1,1.4,9
2016/11/30 5:51,0.6,13,0.7,1,1.4,7
2016/11/30 5:52,0.6,13,0.6,1,0.6,13
2016/11/30 5:53,0.5,13,0.6,1,0.8,2
2016/11/30 5:54,0.5,13,0.5,16,0,3
2016/11/30 5:55,0.4,11,0.5,16,0,13
2016/11/30 5:56,0.4,11,0.4,16,0,12
2016/11/30 5:57,0.4,11,0.4,15,1.6,15
2016/11/30 5:58,0.5,12,0.5,15,1.9,15
2016/11/30 5:59,0.5,13,0.5,14,1.9,15
2016/11/30 6:00,0.5,14,0.5,14,1.9,15
2016/11/30 6:01,0.6,15,0.6,13,1.8,15
2016/11/30 6:02,0.7,15,0.7,15,1.6,16
2016/11/30 6:03,0.8,15,0.8,15,1.8,16
2016/11/30 6:04,1,15,1,15,1.8,1
2016/11/30 6:05,1.1,15,1.1,15,2.1,16
2016/11/30 6:06,1.3,16,1.3,16,2.6,16
2016/11/30 6:07,1.4,16,1.4,16,3,16
2016/11/30 6:08,1.5,16,1.5,16,3.1,16
2016/11/30 6:09,1.6,16,1.6,16,3.2,16
2016/11/30 6:10,1.7,16,1.7,16,2.2,16
2016/11/30 6:11,1.7,16,1.7,16,2.5,16
2016/11/30 6:12,1.8,16,1.8,16,2,15
2016/11/30 6:13,1.7,16,1.8,16,1.6,16
2016/11/30 6:14,1.7,16,1.7,16,2,1
2016/11/30 6:15,1.7,16,1.7,16,2.2,1
2016/11/30 6:16,1.6,16,1.7,16,1.6,16
2016/11/30 6:17,1.5,1,1.6,16,2.1,16
2016/11/30 6:18,1.4,1,1.5,16,2.4,16
2016/11/30 6:19,1.4,1,1.4,16,2.2,16
2016/11/30 6:20,1.4,1,1.4,16,2.5,15
2016/11/30 6:21,1.4,16,1.4,16,3,15
2016/11/30 6:22,1.5,16,1.5,16,3.3,15
2016/11/30 6:23,1.6,16,1.6,16,2.6,16
2016/11/30 6:24,1.7,16,1.7,16,3.3,15
2016/11/30 6:25,1.7,16,1.7,16,2.5,1
2016/11/30 6:26,1.9,16,1.9,16,2.5,16
2016/11/30 6:27,1.9,16,1.9,16,2,16
2016/11/30 6:28,1.9,16,1.9,16,1.9,16
2016/11/30 6:29,1.9,16,1.9,16,2.7,15
2016/11/30 6:30,1.9,16,1.9,16,2.6,16
2016/11/30 6:31,1.9,16,1.9,16,3.7,15
2016/11/30 6:32,2,16,2,16,3.6,15
2016/11/30 6:33,1.9,16,2,16,2.4,15
2016/11/30 6:34,1.8,16,1.9,16,1.1,16
2016/11/30 6:35,1.8,16,1.8,16,3.1,16
2016/11/30 6:36,1.7,16,1.8,16,2.4,15
2016/11/30 6:37,1.6,16,1.7,16,1.6,15
2016/11/30 6:38,1.5,16,1.6,16,1,15
2016/11/30 6:39,1.4,16,1.5,16,0.6,1
2016/11/30 6:40,1.3,16,1.4,16,1.3,5
2016/11/30 6:41,1.2,1,1.3,16,1.5,5
2016/11/30 6:42,1,1,1.1,16,1.4,3
2016/11/30 6:43,1,1,1,16,1.8,3
2016/11/30 6:44,1,2,1,16,1.9,3
2016/11/30 6:45,0.9,2,1,16,1.6,2
2016/11/30 6:46,0.9,2,0.9,16,1.3,1
2016/11/30 6:47,0.9,2,0.9,16,1.3,16
2016/11/30 6:48,0.9,2,0.9,16,1.1,16
2016/11/30 6:49,1,2,1,16,1.1,1
2016/11/30 6:50,1,2,1,16,1,16
2016/11/30 6:51,0.9,1,1,1,0.9,1
2016/11/30 6:52,0.8,1,0.9,1,0.5,16
2016/11/30 6:53,0.7,1,0.8,2,0,16
2016/11/30 6:54,0.6,1,0.7,2,0,1
2016/11/30 6:55,0.5,16,0.6,2,1,15
2016/11/30 6:56,0.5,16,0.5,2,1.3,15
2016/11/30 6:57,0.4,16,0.5,2,0.1,15
2016/11/30 6:58,0.4,16,0.4,2,1.4,15
2016/11/30 6:59,0.4,16,0.4,2,1.4,15
2016/11/30 7:00,0.5,16,0.5,2,2,16
2016/11/30 7:01,0.6,16,0.6,1,2.4,16
2016/11/30 7:02,0.7,16,0.7,1,1.8,15
2016/11/30 7:03,0.8,15,0.8,15,1.5,15
2016/11/30 7:04,0.9,15,0.9,15,1.6,13
2016/11/30 7:05,1,15,1,15,1.8,14
2016/11/30 7:06,1,15,1,15,1,15
2016/11/30 7:07,1.1,15,1.1,15,1.6,16
2016/11/30 7:08,1,15,1.1,15,0.8,16
2016/11/30 7:09,1,15,1,15,1.3,16
2016/11/30 7:10,0.9,14,1,15,1.3,14
2016/11/30 7:11,0.9,14,0.9,15,2.5,16
2016/11/30 7:12,0.9,15,0.9,15,2.6,15
2016/11/30 7:13,0.9,15,0.9,15,1.6,16
2016/11/30 7:14,1,15,1,15,2.6,15
2016/11/30 7:15,1,15,1,15,2.7,16
2016/11/30 7:16,1.1,15,1.1,15,2.4,15
2016/11/30 7:17,1.1,16,1.2,15,1.9,16
2016/11/30 7:18,1.2,16,1.2,15,1.1,1
2016/11/30 7:19,1.2,16,1.2,15,1.5,1
2016/11/30 7:20,1.3,16,1.3,16,2.5,16
2016/11/30 7:21,1.4,16,1.4,16,2.5,16
2016/11/30 7:22,1.3,16,1.4,16,1.9,1
2016/11/30 7:23,1.4,16,1.4,16,1.8,16
2016/11/30 7:24,1.3,16,1.4,16,1.8,16
2016/11/30 7:25,1.3,16,1.3,16,1.8,16
2016/11/30 7:26,1.2,16,1.3,16,1.5,16
2016/11/30 7:27,1.2,16,1.2,16,0.9,16
2016/11/30 7:28,1.1,16,1.2,16,0.5,15
2016/11/30 7:29,1,16,1.1,16,0.3,15
2016/11/30 7:30,0.9,16,1,16,0,14
2016/11/30 7:31,0.7,16,0.9,16,0.9,8
2016/11/30 7:32,0.7,16,0.7,16,1,6
2016/11/30 7:33,0.5,16,0.7,16,0,7
2016/11/30 7:34,0.4,13,0.5,16,0,8
2016/11/30 7:35,0.3,9,0.4,16,1.3,9
2016/11/30 7:36,0.3,9,0.3,16,1.5,10
2016/11/30 7:37,0.3,9,0.3,16,0.8,9
2016/11/30 7:38,0.3,9,0.3,16,0.1,9
2016/11/30 7:39,0.3,9,0.3,16,0.1,9
2016/11/30 7:40,0.3,9,0.3,16,0,9
2016/11/30 7:41,0.2,9,0.3,16,0.3,4
2016/11/30 7:42,0.2,9,0.2,16,0.6,8
2016/11/30 7:43,0.3,9,0.3,16,1,6
2016/11/30 7:44,0.4,9,0.4,13,1.3,8
2016/11/30 7:45,0.4,9,0.4,9,1,8
2016/11/30 7:46,0.3,8,0.4,9,0.6,9
2016/11/30 7:47,0.3,8,0.3,9,1,8
2016/11/30 7:48,0.3,8,0.3,9,1,8
2016/11/30 7:49,0.3,8,0.3,9,0.3,10
2016/11/30 7:50,0.4,8,0.4,9,1.4,7
2016/11/30 7:51,0.5,8,0.5,8,1.5,7
2016/11/30 7:52,0.6,8,0.6,8,1.1,8
2016/11/30 7:53,0.5,8,0.5,8,0.8,9
2016/11/30 7:54,0.5,8,0.5,8,1.4,9
2016/11/30 7:55,0.5,8,0.5,8,1.3,9
2016/11/30 7:56,0.6,8,0.6,8,1.4,9
2016/11/30 7:57,0.6,9,0.6,8,1.3,9
2016/11/30 7:58,0.6,9,0.6,8,0.9,9
2016/11/30 7:59,0.6,9,0.6,8,0.6,10
2016/11/30 8:00,0.6,9,0.6,8,0.6,11
2016/11/30 8:01,0.5,10,0.6,8,0.5,11
2016/11/30 8:02,0.4,10,0.4,8,0,11
2016/11/30 8:03,0.4,10,0.4,8,0,11
2016/11/30 8:04,0.3,10,0.3,8,0.1,11
2016/11/30 8:05,0.2,11,0.2,8,0,11
2016/11/30 8:06,0.2,11,0.2,9,0.8,16
2016/11/30 8:07,0.2,11,0.2,9,0.6,2
2016/11/30 8:08,0.2,12,0.2,9,1.5,1
2016/11/30 8:09,0.3,13,0.3,9,1.6,1
2016/11/30 8:10,0.4,14,0.4,9,1.5,1
2016/11/30 8:11,0.4,15,0.4,10,1.4,3
2016/11/30 8:12,0.6,16,0.6,16,1.8,2
2016/11/30 8:13,0.6,1,0.6,16,1.4,1
2016/11/30 8:14,0.7,1,0.7,1,1.3,1
2016/11/30 8:15,0.7,1,0.7,1,1.1,1
2016/11/30 8:16,0.7,2,0.7,1,1,4
2016/11/30 8:17,0.7,2,0.7,1,0.4,5
2016/11/30 8:18,0.6,2,0.6,1,0,4
2016/11/30 8:19,0.4,2,0.6,1,0,3
2016/11/30 8:20,0.4,3,0.4,1,0.3,4
2016/11/30 8:21,0.3,3,0.4,1,0.1,2
2016/11/30 8:22,0.2,3,0.3,1,0.8,3
2016/11/30 8:23,0.1,3,0.2,1,0.3,2
2016/11/30 8:24,0.1,3,0.1,1,0.1,2
2016/11/30 8:25,0.1,3,0.1,1,0,2
2016/11/30 8:26,0.1,3,0.1,2,1.1,7
2016/11/30 8:27,0.2,3,0.2,2,1.5,8
2016/11/30 8:28,0.3,4,0.3,2,1.6,8
2016/11/30 8:29,0.4,4,0.4,3,1.6,8
2016/11/30 8:30,0.6,5,0.6,5,1.9,8
2016/11/30 8:31,0.6,6,0.6,5,1.5,9
2016/11/30 8:32,0.7,7,0.7,6,0.9,8
2016/11/30 8:33,0.7,7,0.7,6,0.4,8
2016/11/30 8:34,0.7,7,0.7,6,0.5,7
2016/11/30 8:35,0.7,7,0.7,6,0.4,6
2016/11/30 8:36,0.6,7,0.7,6,0,5
2016/11/30 8:37,0.5,7,0.6,6,0.3,5
2016/11/30 8:38,0.4,6,0.5,6,0.4,4
2016/11/30 8:39,0.3,6,0.4,6,0.4,4
2016/11/30 8:40,0.2,6,0.3,6,0,5
2016/11/30 8:41,0.1,5,0.1,6,0,6
2016/11/30 8:42,0,5,0.1,7,0.1,3
2016/11/30 8:43,0,5,0,7,0,3
2016/11/30 8:44,0,4,0,7,0,3
2016/11/30 8:45,0.1,4,0.1,7,0.9,7
2016/11/30 8:46,0.1,5,0.1,7,1,8
2016/11/30 8:47,0.3,5,0.3,7,2,9
2016/11/30 8:48,0.4,5,0.4,6,1.6,9
2016/11/30 8:49,0.5,6,0.5,6,1.5,10
2016/11/30 8:50,0.6,6,0.6,6,1.5,8
2016/11/30 8:51,0.7,7,0.7,7,1.8,9
2016/11/30 8:52,0.8,8,0.8,8,1.8,9
2016/11/30 8:53,0.9,8,0.9,8,1.4,10
2016/11/30 8:54,1,9,1,8,1.6,9
2016/11/30 8:55,1,9,1,8,0.9,9
2016/11/30 8:56,1,9,1,8,1.3,9
2016/11/30 8:57,1,9,1,8,2.7,10
2016/11/30 8:58,1.2,9,1.2,9,3,11
2016/11/30 8:59,1.3,9,1.3,9,2.9,11
2016/11/30 9:00,1.4,10,1.4,10,3.2,10
2016/11/30 9:01,1.6,10,1.6,10,3,10
2016/11/30 9:02,1.6,10,1.6,10,2.7,10
2016/11/30 9:03,1.7,10,1.7,10,3.1,11
2016/11/30 9:04,1.8,10,1.8,10,3.1,11
2016/11/30 9:05,2,10,2,10,3,9
2016/11/30 9:06,2.1,10,2.1,10,3.6,10
2016/11/30 9:07,2.1,10,2.2,10,2.7,10
2016/11/30 9:08,2,10,2.1,10,2.6,11
2016/11/30 9:09,2,10,2,10,2.9,9
2016/11/30 9:10,1.9,10,2,10,2.6,9
2016/11/30 9:11,1.9,10,1.9,10,3.3,9
2016/11/30 9:12,1.9,10,1.9,10,2.7,8
2016/11/30 9:13,1.8,10,1.9,10,3.5,9
2016/11/30 9:14,1.7,10,1.8,10,3.7,8
2016/11/30 9:15,1.6,10,1.7,10,3.3,9
2016/11/30 9:16,1.6,10,1.6,10,2.5,10
2016/11/30 9:17,1.7,10,1.7,10,3,11
2016/11/30 9:18,1.7,10,1.7,10,2.7,10
2016/11/30 9:19,1.6,10,1.7,10,2.4,10
2016/11/30 9:20,1.6,10,1.6,10,2,10
2016/11/30 9:21,1.5,10,1.6,10,1.5,10
2016/11/30 9:22,1.5,10,1.5,10,2.4,10
2016/11/30 9:23,1.4,10,1.4,10,3.7,9
2016/11/30 9:24,1.4,10,1.5,10,3.5,10
2016/11/30 9:25,1.5,10,1.5,10,3.5,9
2016/11/30 9:26,1.5,10,1.5,10,2.5,10
2016/11/30 9:27,1.4,10,1.5,10,2.4,9
2016/11/30 9:28,1.4,10,1.4,10,2.6,10
2016/11/30 9:29,1.4,10,1.4,10,1.8,11
2016/11/30 9:30,1.4,10,1.4,10,2.2,9
2016/11/30 9:31,1.4,10,1.4,10,2.1,11
2016/11/30 9:32,1.4,10,1.4,10,1.9,9
2016/11/30 9:33,1.4,10,1.5,10,3,9
2016/11/30 9:34,1.4,10,1.4,10,2.5,10
2016/11/30 9:35,1.3,10,1.4,10,1.9,11
2016/11/30 9:36,1.3,10,1.3,10,2.4,11
2016/11/30 9:37,1.3,10,1.3,10,2.4,10
2016/11/30 9:38,1.2,10,1.3,10,2.5,9
2016/11/30 9:39,1.3,10,1.3,10,3.5,10
2016/11/30 9:40,1.4,10,1.4,10,3.3,11
2016/11/30 9:41,1.5,11,1.5,10,2.9,11
2016/11/30 9:42,1.6,10,1.6,11,2.9,10
2016/11/30 9:43,1.6,10,1.6,11,2.5,10
2016/11/30 9:44,1.6,11,1.6,11,3.3,10
2016/11/30 9:45,1.8,11,1.8,11,3.1,11
2016/11/30 9:46,1.8,11,1.8,11,3.3,10
2016/11/30 9:47,1.9,11,1.9,11,2.5,10
2016/11/30 9:48,1.9,11,1.9,11,2.1,12
2016/11/30 9:49,1.9,11,1.9,11,2.7,11
2016/11/30 9:50,1.8,11,1.9,11,2.4,11
2016/11/30 9:51,1.7,11,1.8,11,3.1,9
2016/11/30 9:52,1.7,11,1.7,11,2.5,9
2016/11/30 9:53,1.6,11,1.7,11,2,10
2016/11/30 9:54,1.6,10,1.6,11,3.5,8
2016/11/30 9:55,1.6,10,1.6,11,4.1,8
2016/11/30 9:56,1.6,10,1.6,11,3.8,8
2016/11/30 9:57,1.7,10,1.7,11,4.4,8
2016/11/30 9:58,1.7,9,1.7,11,4.4,10
2016/11/30 9:59,1.8,9,1.8,11,4.3,9
2016/11/30 10:00,1.8,9,1.8,11,3.7,8
2016/11/30 10:01,1.8,9,1.8,9,2.9,8
2016/11/30 10:02,1.8,9,1.8,9,3,10
2016/11/30 10:03,1.9,9,1.9,9,3.3,7
2016/11/30 10:04,1.9,9,2,9,3.8,9
2016/11/30 10:05,1.9,9,1.9,9,4.4,8
2016/11/30 10:06,1.9,9,1.9,9,4.3,9
2016/11/30 10:07,1.9,9,1.9,9,4.3,9
2016/11/30 10:08,1.9,9,1.9,9,3.3,9
2016/11/30 10:09,1.9,9,1.9,9,4.2,9
2016/11/30 10:10,2,9,2,9,3.8,9
2016/11/30 10:11,2.1,9,2.1,9,3.2,8
2016/11/30 10:12,2.1,9,2.1,9,3.1,8
2016/11/30 10:13,2.1,9,2.1,9,3.2,8
2016/11/30 10:14,2.1,9,2.1,9,3.5,9
2016/11/30 10:15,2.1,9,2.1,9,3.8,8
2016/11/30 10:16,2,9,2,9,3.2,8
2016/11/30 10:17,1.9,9,2,9,3.3,9
2016/11/30 10:18,2,8,2,9,3.8,8
2016/11/30 10:19,1.9,8,2,9,3.2,8
2016/11/30 10:20,1.7,9,1.9,9,2.7,10
2016/11/30 10:21,1.6,9,1.7,9,1.6,9
2016/11/30 10:22,1.6,9,1.6,9,1.6,9
2016/11/30 10:23,1.6,9,1.7,9,3.9,8
2016/11/30 10:24,1.6,8,1.6,9,2.9,8
2016/11/30 10:25,1.6,9,1.6,9,3.1,8
2016/11/30 10:26,1.6,9,1.7,9,3.3,9
2016/11/30 10:27,1.6,9,1.6,8,2.9,8
2016/11/30 10:28,1.5,9,1.6,8,2.9,8
2016/11/30 10:29,1.5,9,1.5,8,3.8,8
2016/11/30 10:30,1.7,9,1.7,8,5.1,8
2016/11/30 10:31,1.9,8,1.9,8,4.4,8
2016/11/30 10:32,2.1,8,2.1,8,4.9,8
2016/11/30 10:33,2.1,8,2.2,8,3.6,8
2016/11/30 10:34,2,8,2.1,8,1.6,7
2016/11/30 10:35,2,8,2,8,2.5,8
2016/11/30 10:36,2,8,2.1,8,3.3,8
2016/11/30 10:37,2.1,8,2.1,8,3.1,9
2016/11/30 10:38,2.1,8,2.1,8,3.3,9
2016/11/30 10:39,2,8,2.1,8,2.6,7
2016/11/30 10:40,1.8,8,2.1,8,1.9,8
2016/11/30 10:41,1.7,8,1.8,8,2.9,8
2016/11/30 10:42,1.5,8,1.7,8,1.6,8
2016/11/30 10:43,1.4,8,1.5,8,0.8,11
2016/11/30 10:44,1.3,8,1.4,8,0.4,2
2016/11/30 10:45,1.3,8,1.3,8,2,6
2016/11/30 10:46,1.2,8,1.3,8,2.2,6
2016/11/30 10:47,1.1,7,1.2,8,2.4,5
2016/11/30 10:48,1.1,7,1.1,8,2.7,6
2016/11/30 10:49,1.1,7,1.1,8,2,6
2016/11/30 10:50,1.1,6,1.1,8,2.7,6
2016/11/30 10:51,1,6,1.1,8,1.9,5
2016/11/30 10:52,1,6,1,8,1.9,7
2016/11/30 10:53,1.1,6,1.1,8,2.7,7
2016/11/30 10:54,1.2,6,1.2,8,3.7,8
2016/11/30 10:55,1.2,6,1.3,8,2.4,10
2016/11/30 10:56,1.2,7,1.2,6,3.3,8
2016/11/30 10:57,1.2,7,1.2,6,3.3,8
2016/11/30 10:58,1.2,7,1.2,6,3.1,7